Regional Weather Roundup
Issued by NWS Grand Forks, ND

Home | Current Version | Previous Version | Graphics & Text | Print | Product List | Glossary On
Versions: 1 2 3 4 5 6 7 8 9 10 11 12 13 14 15 16 17 18 19 20 21 22 23 24 25 26 27 28 29 30 31 32 33 34 35 36 37 38 39 40 41 42 43 44 45 46 47 48 49 50
000
ASUS43 KFGF 262231
RWRFGF
PRAIRIE TO PINES  WEATHER ROUNDUP
NATIONAL WEATHER SERVICE EASTERN NORTH DAKOTA/GRAND FORKS ND
500 PM CDT THU MAR 26 2015

 **SATELLITE DATA USED TO AUGMENT SKY COVER AT AUTOMATED STATIONS**
 *****  WEATHER ACROSS EASTERN NORTH DAKOTA  *****

CITY           SKY/WX    TMP DP  RH WIND       PRES   REMARKS
GRAND FORKS    CLOUDY    32  16  51 N17       30.28S WCI  21
GRAND FRKS AFB CLOUDY    30  14  51 NE16      30.27F WCI  19
GRAND FRKS NWS   N/A     28 N/A N/A N14         N/A  WCI  17
DEVILS LAKE    CLOUDY    30  18  59 NE12      30.25S WCI  21
FARGO          SUNNY     35   9  33 N22G32    30.24R WCI  23
WAHPETON ARPT  CLEAR     34   7  32 N21G26    30.21R WCI  22
$$

 ***** WEATHER ACROSS CENTRAL AND WESTERN NORTH DAKOTA  *****

CITY           SKY/WX    TMP DP  RH WIND       PRES   REMARKS
BISMARCK       PTSUNNY   40  21  46 VRB5      30.22S
MINOT          SUNNY     37  19  48 E5        30.22R
JAMESTOWN      SUNNY     36  11  35 NE16G22   30.22S
MINOT AFB      MOSUNNY   38  23  56 SE6       30.21S
GARRISON         N/A     38  22  52 CALM      30.21R
WILLISTON      MOSUNNY   44  24  45 S6        30.16F
DICKINSON      CLOUDY    38  30  73 SE8       30.15S
HETTINGER      PTSUNNY   38  29  70 E6        30.16F
$$

 *****  OTHER AIRPORT OBSERVATIONS IN OUR AREA  *****

CITY           SKY/WX    TMP DP  RH WIND       PRES   REMARKS
WALHALLA         N/A     30  18  59 N14       30.31R WCI  20
GRAFTON AIRPOR NOT AVBL
VALLEY CITY AR MOCLDY    32  12  43 N15G23    30.23S WCI  22
CANDO          CLOUDY    32  14  47 NE8       30.26S WCI  25
CAVALIER APRT  CLOUDY    28  19  69 N14       30.30S WCI  17
GWINNER        CLEAR     36  12  38 N18G30      N/A
SHEYENNE NWR     N/A     34   8  33 N14       29.95  WCI  25
ROLLA          FAIR      32  16  51 NE5       30.25R
 ***** THE ABOVE OBSERVATIONS ARE NON NWS ARE NOT QUALITY
       CONTROLLED AND MAY MIS-REPORT RAIN FOR SNOW...
$$

  *****  WEATHER ACROSS NORTHERN MINNESOTA  *****

CITY           SKY/WX    TMP DP  RH WIND       PRES   REMARKS
FLAG ISLAND    SUNNY     25   5  42 NW13G18   30.23S WCI  13
WARROAD        SUNNY     25  10  54 E8        30.24S WCI  16
ROSEAU         SUNNY     28  10  47 N15       30.24S WCI  17
HALLOCK        MOSUNNY   30  14  51 N16       30.28F WCI  19
THF RVR FALLS  SUNNY     28  10  47 N13       30.24S WCI  18
BAUDETTE       SUNNY     25   3  38 N15       30.21S WCI  13
WASKISH        SUNNY     27   1  33 N10G21    30.20S WCI  17
CROOKSTON      MOSUNNY   30  12  47 N16       30.27S WCI  19
$$
  *****  WEATHER ACROSS CENTRAL AND WEST MINNESOTA  *****

CITY           SKY/WX    TMP DP  RH WIND       PRES   REMARKS
FOSSTON        MOSUNNY   30  10  43 N15G22    30.21F WCI  19
BEMIDJI        SUNNY     29   0  29 N15       30.17S WCI  17
PARK RAPIDS    SUNNY     31  -2  24 N17G24    30.14S WCI  19
ELBOW LAKE     FAIR      31  12  44 N17G24    30.17R WCI  20
WADENA         SUNNY     30   9  40 N14       30.14R WCI  20
DETROIT LAKES  SUNNY     30  12  47 N8G25     30.20R WCI  23
MOORHEAD       SUNNY     34   1  25 N22G28    30.24S WCI  22
FERGUS FALLS   SUNNY     32   7  34 N16       30.21S WCI  21
MORRIS MN      SUNNY     34  18  51 N22       30.16S WCI  22
STAPLES        SUNNY     30   3  31 N16       30.14R WCI  19
$$
  *****  WEATHER ELSEWHERE ACROSS MINNESOTA  *****

CITY           SKY/WX    TMP DP  RH WIND       PRES   REMARKS
DULUTH         MOSUNNY   29   2  31 NW15G22   30.08S WCI  18
INTRNTL FALLS  SUNNY     27   2  34 N12       30.17S WCI  17
ELY            SUNNY     25  -2  30 N8        30.11R WCI  16
CLOQUET        SUNNY     30  -2  24 NW17G23   30.10R WCI  18
WHEATON        SUNNY     34  12  40 NW18G28   30.21S WCI  23
BRAINERD       SUNNY     32   7  35 NW16      30.14R WCI  21
HIBBING        SUNNY     29  -2  26 N14G25    30.11S WCI  18
ALEXANDRIA     MOSUNNY   32  14  47 N16G23    30.14F WCI  21
SAINT CLOUD    MOSUNNY   34  10  37 NW10      30.12S
MINNEAPOLIS    PTSUNNY   34  15  46 NW16G24   30.10S WCI  24
$$

  *****  WEATHER ACROSS SOUTH DAKOTA  *****

CITY           SKY/WX    TMP DP  RH WIND       PRES   REMARKS
SIOUX FALLS    CLOUDY    39  22  50 N14       30.14S
BROOKINGS      NOT AVBL
WATERTOWN      MOSUNNY   35  16  45 N18       30.15S WCI  24
HURON          CLOUDY    40  20  44 N14       30.18S
SISSETON         N/A     35  16  45 N20       30.19F WCI  24
ABERDEEN       MOSUNNY   39  14  36 N14G22    30.21S
MITCHELL       CLOUDY    39  26  59 NW8       30.18S
PIERRE         CLOUDY    37  29  72 E6        30.19R
MOBRIDGE       CLOUDY    42  23  46 N8        30.17S
RAPID CITY     CLOUDY    48  29  47 N13       30.11S
$$

  *****  SOME WEATHER IN NEARBY STATES *****

CITY           SKY/WX    TMP DP  RH WIND       PRES   REMARKS
GLASGOW MT     PTSUNNY   51  31  46 SE14      30.07F
GREAT FALLS MT MOSUNNY   64  34  32 W26G32    30.06S
CHEYENNE WY    PTSUNNY   52  22  30 NW24G38   30.11F
SCOTTSBLUFF NE CLOUDY    54  33  45 N24G35    30.11S
OMAHA NE       CLOUDY    44  26  49 N15G21    30.11R
DES MOINES IA  CLOUDY    45  23  42 N14G20    30.09S
DAVENPORT IA   SUNNY     42  23  46 N22       30.03R
CHICAGO IL     CLOUDY    38  23  55 NW14      29.99R
EAU CLAIRE WI  CLOUDY    33  13  43 NW12      30.06S WCI  24
LA CROSSE WI   CLOUDY    37  19  48 NW16      30.06R
$$

  *****  SOME NATIONAL WEATHER *****

CITY           SKY/WX    TMP DP  RH WIND       PRES   REMARKS
LA GUARDIA NY  CLOUDY    54  52  94 SE8       29.64F FOG
RALEIGH NC     CLOUDY    72  56  57 SW18G25   29.76F
ATLANTA GA     CLOUDY    72  50  45 SW10      29.81F
NEW ORLEANS LA CLOUDY    63  58  83 S7        29.83R
OKLAHOMA CITY  MOSUNNY   61  29  29 N14G20    30.13F
ALBUQUERQUE NM MOSUNNY   61  18  18 SW8       30.23F
SALT LAKE CITY PTSUNNY   59  26  28 VRB7      30.35F
LOS ANGELES CA SUNNY     78  48  34 W12       30.02F
BOISE ID       SUNNY     63  39  41 N8        30.32F
SEATTLE WA     MOSUNNY   67  48  50 CALM      30.22F
$$

*** WEATHER ACROSS MANITOBA...SASKATCHEWAN AND ONTARIO ***
                ***ONTARIO***

CITY           SKY/WX    TMP DP  RH WIND       PRES   REMARKS
GERALDTON      MOSUNNY   18  -4  38 N14G23    30.04R WCI   4
THUNDER BAY    MOSUNNY   25   0  33 NW17G23   30.10S WCI  11
SIOUX LOOKOUT  FLURRIES  19   3  49 N12       30.18R WCI   7
TORONTO        CLOUDY    41  30  65 W17       29.77R
BIG TROUT LK   SUNNY     16  -8  35 N9        30.24R WCI   4
PICKLE LAKE    MOSUNNY   16  -4  41 N8G17     30.15R WCI   5
DRYDEN         SUNNY     21   0  39 N7        30.18R WCI  13
KENORA         SUNNY     23  -2  33 NW14      30.21S WCI  11
$$
                *** MANITOBA***

CITY           SKY/WX    TMP DP  RH WIND       PRES   REMARKS
BRANDON        MOSUNNY   32  21  64 N3        30.29R
DAUPHIN        SUNNY     27  19  74 E7        30.31R WCI  19
ISLAND LAKE    SUNNY     21  -6  30 NW7       30.29F WCI  13
PILOT MOUND      N/A     28  18  64 NE9         N/A  WCI  20
THE PAS        MOSUNNY   28  18  64 S9        30.28S WCI  20
THOMPSON       SUNNY     27  -4  26 NW5       30.28S WCI  21
WINNIPEG       MOSUNNY   27   9  46 N9G18     30.33S WCI  17
LYNN LAKE      SUNNY     25   0  33 S9        30.20F WCI  15
CHURCHILL      SUNNY     12   0  57 W3        30.27
GILLAM         SUNNY     21   0  39 W6        30.29F WCI  14
$$
                ***SASKATCHEWAN***

CITY           SKY/WX    TMP DP  RH WIND       PRES   REMARKS
ESTEVAN        CLOUDY    39  25  56 E10       30.20S
KINDERSLEY     CLOUDY    48  37  66 SE10      30.01F
LLOYDMINSTER   CLOUDY    36  28  75 SE8       30.00F
PRINCE ALBERT  CLOUDY    37  25  60 S10       30.15F
REGINA         PTSUNNY   37  28  70 SE13G20   30.16
YORKTON        SUNNY     34  18  51 S5        30.23S
N. BATTLEFORD  PTSUNNY   37  30  75 E15       30.07F
LA RONGE       PTSUNNY   37  23  56 SE10      30.12F
SASKATOON      CLOUDY    41  30  65 SE12G18   30.12F
SWIFT CURRENT  CLOUDY    50  30  46 SE10      30.02F
$$
NOTE: THESE ARE AUTOMATED STATIONS WITH LIMITED QUALITY CONTROL
      "FAIR" INDICATES FEW OR NO CLOUDS BELOW 12,000 FEET WITH NO
      SIGNIFICANT WEATHER AND/OR OBSTRUCTIONS TO VISIBILITY.
      SKY/WX - SKY CONDITION AND SIGNIFICANT WEATHER.
      TMP - AIR TEMPERATURE.    DP   - DEWPOINT TEMPERATURE.
      RH  - RELATIVE HUMIDITY.  PRES - PRESSURE.
      HX  - HEAT INDEX.         WCI  - WIND CHILL INDEX.
$



USA.gov is the U.S. government's official web portal to all federal, state and local government web resources and services.